Regional Weather Roundup
Issued by NWS

Home | Current Version | Previous Version | Graphics & Text | Print | Product List | Glossary On
Versions: 1 2 3 4 5 6 7 8 9 10 11 12 13 14 15 16 17 18 19 20 21 22 23 24 25 26 27 28 29 30 31 32 33 34 35 36 37 38 39 40 41 42 43 44 45 46 47 48 49 50
000
ASUS43 KMPX 040301
RWRMN
WEATHER ROUNDUP FOR MINNESOTA
NATIONAL WEATHER SERVICE TWIN CITIES/CHANHASSEN MN
1000 PM CDT FRI JUL 03 2015


NOTE: "FAIR" INDICATES FEW OR NO CLOUDS BELOW 12,000 FEET WITH NO
SIGNIFICANT WEATHER AND/OR OBSTRUCTIONS TO VISIBILITY. N/A MEANS
CURRENT SKY AND/OR WEATHER CONDITIONS ARE NOT AVAILABLE.

MNZ060>063-068>070-040400-
   Twin Cities Metro

CITY           SKY/WX    TMP DP  RH WIND       PRES   REMARKS
TWIN CITIES    MOCLDY    75  58  55 SW7       29.91R
ST PAUL        CLEAR     72  59  63 CALM      29.90S
CRYSTAL        PTCLDY    74  59  59 SW3       29.89R
BLAINE         PTCLDY    72  61  68 SW3       29.90S
LAKEVILLE      CLEAR     66  57  72 CALM      29.91F
EDEN PRAIRIE   CLEAR     70  60  70 SW5       29.90S
SOUTH ST PAUL  CLEAR     72  58  62 CALM      29.90S
LAKE ELMO      FAIR      70  61  73 S3        29.92R
$$
MNZ001>005-007-008-013>017-022>024-027-028-040400-
   Northwest Minnesota

CITY           SKY/WX    TMP DP  RH WIND       PRES   REMARKS
BEMIDJI        CLEAR     65  60  85 CALM      29.92S
HALLOCK        PTCLDY    66  63  88 E3        29.89R FOG
ROSEAU         PTCLDY    66  61  82 CALM      29.91R
WARROAD        PTCLDY    68  61  77 CALM      29.91R
THIEF RVR FALL CLEAR     70  63  78 CALM      29.91S
CROOKSTON      PTCLDY    70  63  78 CALM      29.91R HAZE
FOSSTON        CLEAR     63  52  67 CALM      29.93R HAZE
DETROIT LAKES  PTCLDY    70  63  78 CALM      29.94R HAZE
MOORHEAD       CLEAR     70  63  78 CALM      29.91R HAZE
PARK RAPIDS    CLOUDY    68  61  78 CALM      29.92S HAZE
MAHNOMEN       CLOUDY    70  62  76 CALM      29.91S HAZE
$$
MNZ006-009>011-018-025>026-040400-
   North Central Minnesota

CITY           SKY/WX    TMP DP  RH WIND       PRES   REMARKS
BAUDETTE       CLEAR     62  58  86 CALM      29.91R
FLAG ISLAND    CLEAR     72  57  60 SW6       29.89R
INTL FALLS     CLEAR     63  55  75 E6        29.91R
WASKISH        CLEAR     64  57  77 CALM      29.92R
BIG FORK       CLEAR     61  57  88 CALM      29.93R
LONGVILLE      CLEAR     63  61  94 CALM      29.92R FOG
GRAND RAPIDS   CLEAR     61  55  82 CALM      29.92S
CRANE LAKE     CLEAR     63  55  77 CALM      29.94R
ORR            CLEAR     63  54  72 CALM      29.90R
COOK           CLEAR     63  57  82 CALM      29.92R
WALKER         FAIR      65  60  85 CALM      29.92R
$$
MNZ012-019>021-037-040400-
   Northeast Minnesota

CITY           SKY/WX    TMP DP  RH WIND       PRES   REMARKS
DULUTH         CLEAR     68  56  65 N6        29.91R
ELY            CLEAR     66  54  63 CALM      29.92R
HIBBING        CLEAR     59  58  96 NW3       29.91R
DULUTH HARBOR  CLEAR     73  59  60 NW3       29.88R
TWO HARBORS    CLEAR     70  61  73 NW3       29.87R
SILVER BAY     CLEAR     63  57  82 CALM      29.88R
GRAND MARAIS     N/A     66  55  67 N7        29.87R
G MARAIS ARPRT PTCLDY    63  52  67 NW7       29.93R
$$
MNZ029>031-032-039>041-046>048-054>057-064-040400-
   West Central Minnesota

CITY           SKY/WX    TMP DP  RH WIND       PRES   REMARKS
FERGUS FALLS   CLEAR     73  63  68 CALM      29.90S HAZE
WHEATON        PTCLDY    68  64  88 CALM      29.92S FOG
MORRIS         PTCLDY    73  64  73 CALM      29.91R HAZE
ALEXANDRIA     CLOUDY    67  64  90 CALM      29.94R FOG
ELBOW LAKE     FAIR      71  66  84 CALM      29.92R HAZE
WADENA         CLEAR     66  61  82 CALM      29.92S HAZE
GLENWOOD       CLEAR     70  63  78 CALM      29.93S HAZE
APPLETON       PTCLDY    72  66  83 CALM      29.91R HAZE
BENSON         PTCLDY    66  64  94 CALM      29.91S FOG
ORTONVILLE     PTCLDY    72  64  78 CALM      29.91S HAZE
MADISON        PTCLDY    72  64  78 CALM      29.91S HAZE
WILLMAR        FAIR      73  66  78 CALM      29.93R
$$
MNZ033>034-036-042>043-049>051-058-059-040400-
   Central Minnesota

CITY           SKY/WX    TMP DP  RH WIND       PRES   REMARKS
ST CLOUD       CLOUDY    66  64  93 CALM      29.90R FOG
SAUK CENTRE    MOCLDY    68  64  87 CALM      29.92R FOG
PAYNESVILLE    CLEAR     63  62  97 CALM      29.92R FOG
AITKIN         CLEAR     63  57  82 CALM      29.90R HAZE
PINE RIVER     CLEAR     63  61  94 CALM      29.95S FOG
BRAINERD       CLOUDY    65  61  87 CALM      29.92R FOG
STAPLES        CLEAR     72  61  68 CALM      29.92S HAZE
LONG PRAIRIE   CLOUDY    64  63  94 CALM      29.93R FOG
LITTLE FALLS     N/A     64  63  94 CALM      29.91S FOG
LITCHFIELD     CLEAR     70  66  88 CALM      29.92S
BUFFALO        CLEAR     71  62  72 CALM      29.91R
MAPLE LAKE     CLEAR     68  64  88 CALM      29.91S
$$
MNZ037-044-045-052-053-040400-
   East Central Minnesota

CITY           SKY/WX    TMP DP  RH WIND       PRES   REMARKS
PRINCETON      CLEAR     68  64  88 CALM      29.90S
MORA           CLEAR     64  63  94 CALM      29.92R FOG
CAMBRIDGE      CLEAR     72  61  68 CALM      29.89R
RUSH CITY      PTCLDY    66  64  91 CALM      29.90R
MOOSE LAKE     CLEAR     63  59  88 CALM      29.88R
HINCKLEY       FAIR      68  64  88 CALM      29.90R FOG
CLOQUET        CLEAR     68  55  64 CALM      29.91R
MCGREGOR       CLEAR     64  61  88 CALM      29.91R
$$
MNZ071>073-080-081-089-090-097-098-040400-
   Southwest Minnesota

CITY           SKY/WX    TMP DP  RH WIND       PRES   REMARKS
MONTEVIDEO     PTCLDY    72  64  78 CALM      29.92R
GRANITE FALLS  MOCLDY    72  65  78 CALM      29.93R
CANBY          PTCLDY    73  66  79 N3        29.92R
MARSHALL       MOCLDY    73  64  73 S5        29.91R
REDWOOD FALLS  FAIR      71  63  75 S5        29.91R
OLIVIA         CLEAR     68  61  77 S3        29.92R
PIPESTONE      CLEAR     68  64  88 SW3       29.96R
WINDOM         CLEAR     70  61  73 SW5       29.95R
WORTHINGTON    PTCLDY    68  57  68 SW7       29.96R
JACKSON        CLEAR     70  59  68 SW6       29.96R
TRACY          MOCLDY    72  65  79 SW5       29.94R
SLAYTON        CLEAR     69  64  85 CALM      29.96R
$$
MNZ065>067-074>077-082>085-091>093-040400-
   South Central Minnesota

CITY           SKY/WX    TMP DP  RH WIND       PRES   REMARKS
MANKATO        CLEAR     70  57  64 CALM      29.92S
NEW ULM        CLEAR     68  61  77 CALM      29.92S
ST JAMES       CLEAR     70  63  78 S3        29.94R
FAIRMONT       CLEAR     66  55  68 CALM      29.93S
GLENCOE        CLEAR     70  63  78 CALM      29.91S
FARIBAULT      CLEAR     64  59  82 CALM      29.93S
OWATONNA       CLEAR     64  55  72 S5        29.93F
WASECA         CLEAR     64  59  82 CALM      29.94S
ALBERT LEA     CLEAR     66  61  82 CALM      29.95R
$$
MNZ078>079-086>088-094>096-040400-
   Southeast Minnesota

CITY           SKY/WX    TMP DP  RH WIND       PRES   REMARKS
ROCHESTER      CLEAR     65  55  70 W6        29.95R
RED WING       CLEAR     64  61  88 CALM      29.90S
DODGE CENTER   CLEAR     63  57  82 CALM      29.94S
WINONA         CLEAR     66  63  88 CALM      29.92S
AUSTIN         CLEAR     66  57  72 CALM      29.94S
PRESTON        CLEAR     65  56  71 W3        29.95R
$$
ABBREVIATIONS USED IN REMARKS
   TC - TEMPERATURES IN CELSIUS
  WCI - WIND CHILL INDEX
   HX - HEAT INDEX
  VSB - VISIBILITY
$$



USA.gov is the U.S. government's official web portal to all federal, state and local government web resources and services.